Regional Weather Roundup
Issued by NWS

Home | Current Version | Previous Version | Graphics & Text | Print | Product List | Glossary On
Versions: 1 2 3 4 5 6 7 8 9 10 11 12 13 14 15 16 17 18 19 20 21 22 23 24 25 26 27 28 29 30 31 32 33 34 35 36 37 38 39 40 41 42 43 44 45 46 47 48 49 50
000
ASUS43 KIND 301859
RWRIN

WEATHER ROUNDUP FOR INDIANA
NATIONAL WEATHER SERVICE INDIANAPOLIS IN
300 PM EDT THU JUL 30 2015

NOTE: "FAIR" INDICATES FEW OR NO CLOUDS BELOW 12,000 FEET WITH NO
SIGNIFICANT WEATHER AND/OR OBSTRUCTIONS TO VISIBILITY.

* - STATION DOES NOT REPORT WEATHER SUCH AS PRECIPITATION OR FOG.

+ - STATION NOT QUALITY CONTROLLED BY THE NATIONAL WEATHER SERVICE.
    USE DATA WITH CAUTION...ESPECIALLY DEWPOINT AND RELATIVE
    HUMIDITY OBSERVATIONS.

INZ001>003-010>013-019-020-302000-
NORTHWEST INDIANA

CITY           SKY/WX    TMP DP  RH WIND       PRES   REMARKS
GARY /AIRPORT/ MOSUNNY   86  55  35 NW12      30.06F
RENSSELAER +   SUNNY     84  55  37 W8G17     30.08F

$$

LMZ046-743>745-302000-
SOUTHERN LAKE MICHIGAN

STATION/POSITION TIME  TEMP    WIND        PRES    WAVE
                       AIR SEA DIR/SP/G            HT
                 (UTC) (F)     (DEG/KT/KT) (MB)    (FT)
BURNS HARBOR     1800   78     300/  3/  5 1018.6S
MICHIGAN CITY    1800   75     230/  9/ 10   N/A
5NW MICH CITY    1800   75 73  260/  6/  8   N/A     2

$$

INZ004-005-014>016-021>024-302000-
NORTH CENTRAL INDIANA

CITY           SKY/WX    TMP DP  RH WIND       PRES   REMARKS
ELKHART        SUNNY     84  52  32 NW12G22   30.06S
GOSHEN         SUNNY     83  56  39 NW13      30.05S
SOUTH BEND     SUNNY     84  54  35 W13G24    30.06F

$$

INZ006>009-017-018-025>027-302000-
NORTHEAST INDIANA

CITY           SKY/WX    TMP DP  RH WIND       PRES   REMARKS
ANGOLA *+      SUNNY     84  57  39 W9        30.03F
FORT WAYNE     MOSUNNY   84  57  39 W14G21    30.05F

$$

INZ028-029-035-036-043>045-051>053-302000-
WEST CENTRAL INDIANA

CITY           SKY/WX    TMP DP  RH WIND       PRES   REMARKS
CRAWFORDSVL +  SUNNY     81  49  33 NW10G18     N/A
GREENCASTLE +  SUNNY     82  50  32 NW9G18    30.12F
LAFAYETTE      SUNNY     83  57  41 W14       30.08F
TERRE HAUTE    MOSUNNY   86  59  39 N9G18     30.11F

$$

INZ030>032-037>040-046>048-054>057-064-065-302000-
CENTRAL INDIANA

CITY           SKY/WX    TMP DP  RH WIND       PRES   REMARKS
ANDERSON       MOSUNNY   82  50  32 NW12G23   30.09F
GREENWOOD *+   SUNNY     84  50  30 NW6G17    30.10F
INDIANAPOLIS   MOSUNNY   84  57  39 NW10G20   30.09F
-EAGLE CREEK   SUNNY     83  58  42 NW12G22   30.09F
KOKOMO *+      SUNNY     86  57  37 NW16      30.07F
MT COMFORT *+  SUNNY     84  45  24 NW14G20   30.10S
SHELBYVILLE    SUNNY     85  57  38 NW9       30.09S

$$

INZ033-034-041-042-049-050-058-059-302000-
EAST CENTRAL INDIANA

CITY           SKY/WX    TMP DP  RH WIND       PRES   REMARKS
MUNCIE         SUNNY     82  56  40 W12       30.07F

$$

INZ060-061-067>069-081>083-085>088-302000-
SOUTHWEST INDIANA

CITY           SKY/WX    TMP DP  RH WIND       PRES   REMARKS
EVANSVILLE     SUNNY     88  57  34 N9        30.13F
HUNTINGBURG *+ SUNNY     84  57  39 N9G16     30.12F

$$

INZ062-063-066-070>080-084-089>092-302000-
SOUTH CENTRAL AND SOUTHEAST INDIANA

CITY           SKY/WX    TMP DP  RH WIND       PRES   REMARKS
BLOOMINGTON    SUNNY     84  58  40 VRB5      30.11F
MADISON *+     SUNNY     82  54  36 NW7       30.12S
SEYMOUR +      SUNNY     86  57  37 NW9       30.09F

$$




USA.gov is the U.S. government's official web portal to all federal, state and local government web resources and services.